STARLINK-1805, 46705

Orbit data source: Space-Track

STARLINK-1805, 46705 is a payload satellite owned by SpaceX/Seattle (US) in LEO that was launched on Sun, 18 Oct 2020 UTC via an FALCON 9 launch vehicle from the Air Force Eastern Test Range (AFETR). Payload-class satellites include a variety of spacecraft equipped with specific instruments for various scientific and technological missions. These include communications satellites like Starlink; space stations such as the ISS; scientific satellites like the Hubble; Earth observation satellites from companies like Planet Labs, Umbra, and HawkEye 360; GPS; miniature CubeSats for education and research; and military/defense satellites.

Loading next visibility...
Identifier
46705, 2020-073AM
Orbit
LEO
Country
Flag of USUS
Related business
Manufacturer
SpaceX/Seattle
Mission
Operational Commercial Communications
Bus & Motor
STARLINK, Unknown motor
Mass
260 kg wet, ~248 kg dry
Launch date (UTC)
2020-10-18 (5 years ago)
Launch vehicle
FALCON 9
Launch site
Air Force Eastern Test Range (AFETR)
Object type
Payload
Rocket body
Debris
Shape & HBR
Box + 1 Pan, 4.4 m
Radar Cross Section
13.562 m², Large (>1 m²)

Expand to show TLE details & history
Last TLE update: 16 hours ago

TLE from 16 hours ago
0 STARLINK-1805
1 46705U 20073AM  25260.16816514  .00000334  00000-0  41275-4 0  9994
2 46705  53.0587 315.5878 0000916  65.2562 294.8523 15.06393916270769
Epoch: 2025-09-17T04:02Z
TLE epoch observation values (Epoch: 2025-09-17T04:02:09.468Z)
Latitude
0.00006°
Longitude
-101.2996°
Altitude
547.843 km
Speed
7.589 km/s
True Right ascension
21h 02m 21s
True Declination
0° 00' 00"
Sunlit
Object was in full shadow at epoch
Visualization orbit readout
Latitude
Unknown
Longitude
Unknown
Altitude
Unknown
Speed
Unknown
Apparent Right ascension
Unknown
Apparent Declination
Unknown
Sunlit
N/A
Visualization observer readout
Local Sidereal Time
12:35:45
Azimuth
Unknown
Elevation
Unknown
Doppler factor
Unknown
Orbital elements
Apogee altitude
548.135 km
Perigee altitude
546.866 km
Semi-major axis
6,925.637 km
Eccentricity
0.00009
Inclination
53.0587°
RAAN
315.5878°
Arg. of periapsis
65.2562°
True anomaly
294.84277°
Mean anomaly
294.8523°
Eccentric anomaly
294.84754°
Mean motion
3.76577 °/min
Orbital period
95.6 mins
BSTAR
0.000041275
Loading maneuver chart data...
Computing Atmospheric mass density...
Loading historical data...
Loading historical data...
Loading historical data...
Loading historical data...
Loading historical data...
Loading historical data...
Loading historical data...

Documentation

Showing up to 5 results
|